WX1N Weather Reports


time (UTC)temp
C
wind
direction
speed
KPH
gust
KPH
rain 1hr
cm
rain 24hr
cm
rain mn
cm
humidity
%
barometer
mb
20260510171503 15 0 0.0 0.0 0.00 0.00 0.00 87 1010.9
20260510171003 15 0 0.0 0.0 0.00 0.00 0.00 86 1010.9
20260510170503 15 0 0.0 0.0 0.00 0.00 0.00 83 1011.0
20260510170002 16 0 0.0 0.0 0.00 0.00 0.00 82 1010.9
20260510165503 16 0 0.0 0.0 0.00 0.00 0.00 79 1010.5
20260510165002 16 0 0.0 0.0 0.00 0.00 0.00 81 1010.6
20260510164503 16 0 0.0 0.0 0.00 0.00 0.00 83 1010.7
20260510164003 15 0 0.0 0.0 0.00 0.00 0.00 86 1010.9
20260510163503 15 0 0.0 0.0 0.00 0.00 0.00 86 1010.8
20260510163003 15 0 0.0 0.0 0.00 0.00 0.00 83 1010.8
20260510162503 15 0 0.0 0.0 0.00 0.00 0.00 82 1010.7
20260510162003 16 0 0.0 0.0 0.00 0.00 0.00 79 1010.7
20260510161502 16 0 0.0 0.0 0.00 0.00 0.00 76 1010.5
20260510161003 16 0 0.0 0.0 0.00 0.00 0.00 74 1010.6
20260510160502 16 0 0.0 0.0 0.00 0.00 0.00 78 1010.6
20260510160003 16 0 0.0 0.0 0.00 0.00 0.00 76 1010.6
20260510155503 17 0 0.0 0.0 0.00 0.00 0.00 77 1010.7
20260510155003 17 0 0.0 0.0 0.00 0.00 0.00 77 1010.6
20260510154503 16 0 0.0 0.0 0.00 0.00 0.00 79 1010.6
20260510154003 16 0 0.0 0.0 0.00 0.00 0.00 78 1010.6
20260510153503 16 0 0.0 0.0 0.00 0.00 0.00 79 1010.6
20260510153003 16 0 0.0 0.0 0.00 0.00 0.00 81 1010.7
20260510152503 15 0 0.0 0.0 0.00 0.00 0.00 79 1010.7
20260510152003 15 0 0.0 0.0 0.00 0.00 0.00 79 1010.6
20260510151503 15 0 0.0 0.0 0.00 0.00 0.00 80 1010.6
20260510151003 16 0 0.0 0.0 0.00 0.00 0.00 78 1010.4
20260510150502 16 0 0.0 0.0 0.00 0.00 0.00 79 1010.5
20260510150003 15 0 0.0 0.0 0.00 0.00 0.00 84 1010.5
20260510145503 15 0 0.0 0.0 0.00 0.00 0.00 81 1010.5
20260510145002 15 0 0.0 0.0 0.00 0.00 0.00 81 1010.5
20260510144503 15 0 0.0 0.0 0.00 0.00 0.00 83 1010.6
20260510144002 15 0 0.0 0.0 0.00 0.00 0.00 82 1010.7
20260510143503 14 0 0.0 0.0 0.00 0.00 0.00 83 1010.7
20260510143002 14 0 0.0 0.0 0.00 0.00 0.00 82 1010.6
20260510142503 14 0 0.0 0.0 0.00 0.00 0.00 82 1010.7
20260510142002 14 0 0.0 0.0 0.00 0.00 0.00 83 1010.5
20260510141503 14 0 0.0 0.0 0.00 0.00 0.00 86 1010.5
20260510141004 13 0 0.0 0.0 0.00 0.00 0.00 84 1010.6
20260510140502 13 0 0.0 0.0 0.00 0.00 0.00 84 1010.5
20260510140003 13 0 0.0 0.0 0.00 0.00 0.00 85 1010.5
20260510135503 13 0 0.0 0.0 0.00 0.00 0.00 85 1010.6
20260510135003 13 0 0.0 0.0 0.00 0.00 0.00 87 1010.5
20260510134503 13 0 0.0 0.0 0.00 0.00 0.00 86 1010.7
20260510134003 13 0 0.0 0.0 0.00 0.00 0.00 86 1010.7
20260510133503 13 0 0.0 0.0 0.00 0.00 0.00 86 1010.7
20260510133003 12 0 0.0 0.0 0.00 0.00 0.00 87 1010.7
20260510132503 12 0 0.0 0.0 0.00 0.00 0.00 87 1010.9
20260510132003 12 0 0.0 0.0 0.00 0.00 0.00 87 1010.8
20260510131502 12 0 0.0 0.0 0.00 0.00 0.00 87 1010.9
20260510131003 12 0 0.0 0.0 0.00 0.00 0.00 87 1010.8
20260510130502 12 0 0.0 0.0 0.00 0.00 0.00 87 1010.6
20260510130003 12 0 0.0 0.0 0.00 0.00 0.00 87 1010.4
20260510125503 12 0 0.0 0.0 0.00 0.00 0.00 87 1010.3
20260510125003 12 0 0.0 0.0 0.00 0.00 0.00 87 1010.5
20260510124503 12 0 0.0 0.0 0.00 0.00 0.00 87 1010.6
20260510124003 12 0 0.0 0.0 0.00 0.00 0.00 86 1010.7
20260510123002 12 0 0.0 0.0 0.00 0.00 0.00 86 1010.7
20260510122503 12 0 0.0 0.0 0.00 0.00 0.00 86 1010.7
20260510122002 11 0 0.0 0.0 0.00 0.00 0.00 85 1010.6
20260510121503 11 0 0.0 0.0 0.00 0.00 0.00 84 1010.6
20260510121003 11 0 0.0 0.0 0.00 0.00 0.00 84 1010.8
20260510120503 11 0 0.0 0.0 0.00 0.00 0.00 82 1010.8
20260510120003 11 0 0.0 0.0 0.00 0.00 0.00 81 1010.8
20260510115503 11 0 0.0 0.0 0.00 0.00 0.00 81 1010.8
20260510115003 11 0 0.0 0.0 0.00 0.00 0.00 80 1010.9
20260510114502 11 0 0.0 0.0 0.00 0.00 0.00 80 1010.7
20260510114003 11 0 0.0 0.0 0.00 0.00 0.00 80 1010.5
20260510113503 11 0 0.0 0.0 0.00 0.00 0.00 79 1010.5
20260510113003 11 0 0.0 0.0 0.00 0.00 0.00 78 1010.3
20260510112503 11 0 0.0 0.0 0.00 0.00 0.00 76 1010.3
20260510112003 11 0 0.0 0.0 0.00 0.00 0.00 75 1010.5
20260510111503 11 0 0.0 0.0 0.00 0.00 0.00 74 1010.6
20260510111002 11 0 0.0 0.0 0.00 0.00 0.00 73 1010.6
20260510110503 10 0 0.0 0.0 0.00 0.00 0.00 72 1010.5
20260510110003 10 0 0.0 0.0 0.00 0.00 0.00 72 1010.3
20260510105503 10 0 0.0 0.0 0.00 0.00 0.00 72 1010.2
20260510105003 10 0 0.0 0.0 0.00 0.00 0.00 72 1010.1
20260510104502 10 0 0.0 0.0 0.00 0.00 0.00 72 1010.1
20260510104003 10 0 0.0 0.0 0.00 0.00 0.00 72 1010.0
20260510103502 10 0 0.0 0.0 0.00 0.00 0.00 71 1009.9
20260510102503 10 0 0.0 0.0 0.00 0.00 0.00 72 1009.9
20260510101503 10 0 0.0 0.0 0.00 0.00 0.00 72 1009.5
20260510101003 10 0 0.0 0.0 0.00 0.00 0.00 72 1009.4
20260510100503 10 0 0.0 0.0 0.00 0.00 0.00 72 1009.1
20260510100003 9 0 0.0 0.0 0.00 0.00 0.00 72 1008.9
20260510095503 9 0 0.0 0.0 0.00 0.00 0.00 72 1008.9
20260510095003 9 0 0.0 0.0 0.00 0.00 0.00 73 1009.0
20260510094503 9 0 0.0 0.0 0.00 0.00 0.00 73 1008.8
20260510094003 9 0 0.0 0.0 0.00 0.00 0.00 73 1008.9
20260510093503 9 0 0.0 0.0 0.00 0.00 0.00 73 1008.9
20260510093003 9 0 0.0 0.0 0.00 0.00 0.00 73 1009.1
20260510092503 9 0 0.0 0.0 0.00 0.00 0.00 73 1009.2
20260510092003 9 0 0.0 0.0 0.00 0.00 0.00 73 1008.7
20260510091502 9 0 0.0 0.0 0.00 0.00 0.00 73 1008.6
20260510090502 9 0 0.0 0.0 0.00 0.00 0.00 73 1008.8
20260510090003 8 0 0.0 0.0 0.00 0.00 0.00 73 1008.7
20260510085003 8 0 0.0 0.0 0.00 0.00 0.00 73 1008.7
20260510084502 8 0 0.0 0.0 0.00 0.00 0.00 73 1009.1
20260510084003 8 0 0.0 0.0 0.00 0.00 0.00 73 1009.1
20260510083503 8 0 0.0 0.0 0.00 0.00 0.00 74 1009.2
20260510083003 8 0 0.0 0.0 0.00 0.00 0.00 74 1009.3
20260510082503 8 0 0.0 0.0 0.00 0.00 0.00 74 1009.4
20260510081003 8 0 0.0 0.0 0.00 0.00 0.00 74 1009.2
20260510080503 8 0 0.0 0.0 0.00 0.00 0.00 74 1009.3
20260510080002 8 0 0.0 0.0 0.00 0.00 0.00 74 1009.4
20260510075503 8 0 0.0 0.0 0.00 0.00 0.00 74 1009.3
20260510075003 8 0 0.0 0.0 0.00 0.00 0.00 74 1009.2
20260510074503 8 0 0.0 0.0 0.00 0.00 0.00 74 1009.3
20260510074003 8 0 0.0 0.0 0.00 0.00 0.00 74 1009.3
20260510073503 9 0 0.0 0.0 0.00 0.00 0.00 74 1009.3
20260510073003 8 0 0.0 0.0 0.00 0.00 0.00 74 1009.3
20260510072003 8 0 0.0 0.0 0.00 0.00 0.00 74 1009.2
20260510071503 8 0 0.0 0.0 0.00 0.00 0.00 74 1009.2
20260510071003 8 0 0.0 0.0 0.00 0.00 0.00 74 1009.1
20260510070502 8 0 0.0 0.0 0.00 0.00 0.00 74 1009.2
20260510070003 8 0 0.0 0.0 0.00 0.00 0.00 74 1009.2
20260510065503 9 0 0.0 0.0 0.00 0.00 0.00 74 1009.2
20260510065003 9 0 0.0 0.0 0.00 0.00 0.00 74 1009.3
20260510064503 9 0 0.0 0.0 0.00 0.00 0.00 74 1009.6
20260510064003 9 0 0.0 0.0 0.00 0.00 0.00 74 1009.4
20260510063503 9 0 0.0 0.0 0.00 0.00 0.00 74 1009.4
20260510062503 8 0 0.0 0.0 0.00 0.00 0.00 74 1009.5
20260510062003 8 0 0.0 0.0 0.00 0.00 0.00 74 1009.4
20260510061503 8 0 0.0 0.0 0.00 0.00 0.00 74 1009.2
20260510061003 8 0 0.0 0.0 0.00 0.00 0.00 75 1009.2
20260510060003 8 0 0.0 0.0 0.00 0.00 0.00 75 1009.3
20260510055503 8 0 0.0 0.0 0.00 0.00 0.00 75 1009.6
20260510055003 8 0 0.0 0.0 0.00 0.00 0.00 75 1009.6
20260510054502 8 0 0.0 0.0 0.00 0.00 0.00 75 1009.6
20260510054003 8 0 0.0 0.0 0.00 0.00 0.00 75 1009.6
20260510053503 8 0 0.0 0.0 0.00 0.00 0.00 75 1009.7
20260510053003 8 0 0.0 0.0 0.00 0.00 0.00 75 1009.7
20260510052504 8 0 0.0 0.0 0.00 0.00 0.00 75 1009.7
20260510052004 8 0 0.0 0.0 0.00 0.00 0.00 75 1009.7
20260510051003 8 0 0.0 0.0 0.00 0.00 0.00 75 1009.6
20260510050503 8 0 0.0 0.0 0.00 0.00 0.00 75 1009.7
20260510050004 8 0 0.0 0.0 0.00 0.00 0.00 75 1009.8
20260510045503 8 0 0.0 0.0 0.00 0.00 0.00 75 1009.9
20260510045003 8 0 0.0 0.0 0.00 0.00 0.00 75 1009.9
20260510044503 8 0 0.0 0.0 0.00 0.00 0.00 75 1009.9
20260510044003 8 0 0.0 0.0 0.00 0.00 0.00 75 1010.0
20260510043503 8 0 0.0 0.0 0.00 0.00 0.00 75 1009.9
20260510043003 8 0 0.0 0.0 0.00 0.00 0.00 75 1009.8
20260510042503 8 0 0.0 0.0 0.00 0.00 0.00 75 1009.8
20260510042003 8 0 0.0 0.0 0.00 0.00 0.00 76 1009.9
20260510041504 8 0 0.0 0.0 0.00 0.00 0.00 76 1009.9
20260510041003 8 0 0.0 0.0 0.00 0.00 0.00 76 1009.9
20260510040503 8 0 0.0 0.0 0.00 0.00 0.00 76 1009.8
20260510040004 8 0 0.0 0.0 0.00 0.00 0.00 76 1010.0
20260510035004 8 0 0.0 0.0 0.00 0.00 0.00 76 1009.8
20260510034503 8 0 0.0 0.0 0.00 0.00 0.00 76 1010.0
20260510034003 8 0 0.0 0.0 0.00 0.00 0.00 76 1009.9
20260510033503 8 0 0.0 0.0 0.00 0.00 0.00 76 1009.8
20260510033003 8 0 0.0 0.0 0.00 0.00 0.00 76 1009.8
20260510032003 8 0 0.0 0.0 0.00 0.00 0.00 76 1010.1
20260510031003 8 0 0.0 0.0 0.00 0.00 0.00 76 1010.0
20260510030003 8 0 0.0 0.0 0.00 0.00 0.00 76 1009.9
20260510025503 8 0 0.0 0.0 0.00 0.00 0.00 76 1010.0
20260510025003 8 0 0.0 0.0 0.00 0.00 0.00 76 1010.0
20260510024503 8 0 0.0 0.0 0.00 0.00 0.00 76 1010.1
20260510024004 8 0 0.0 0.0 0.00 0.00 0.00 77 1010.0
20260510023503 8 0 0.0 0.0 0.00 0.00 0.00 77 1010.2
20260510023004 8 0 0.0 0.0 0.00 0.00 0.00 77 1010.3
20260510022503 8 0 0.0 0.0 0.00 0.00 0.00 77 1010.1
20260510022003 8 0 0.0 0.0 0.00 0.00 0.00 77 1010.2
20260510021503 8 0 0.0 0.0 0.00 0.00 0.00 77 1010.4
20260510021003 8 0 0.0 0.0 0.00 0.00 0.00 77 1010.3
20260510020504 8 0 0.0 0.0 0.00 0.00 0.00 77 1010.3
20260510020003 8 0 0.0 0.0 0.00 0.00 0.00 77 1010.2
20260510015503 8 0 0.0 0.0 0.00 0.00 0.00 77 1010.3
20260510015003 8 0 0.0 0.0 0.00 0.00 0.00 77 1010.4
20260510014503 8 0 0.0 0.0 0.00 0.00 0.00 77 1010.4
20260510014003 8 0 0.0 0.0 0.00 0.00 0.00 77 1010.5
20260510013004 8 0 0.0 0.0 0.00 0.00 0.00 78 1010.3
20260510012503 8 0 0.0 0.0 0.00 0.00 0.00 78 1010.3
20260510012003 8 0 0.0 0.0 0.00 0.00 0.00 78 1010.3
20260510011503 8 0 0.0 0.0 0.00 0.00 0.00 78 1010.3
20260510011003 8 0 0.0 0.0 0.00 0.00 0.00 78 1010.3
20260510010504 8 0 0.0 0.0 0.00 0.00 0.00 78 1010.3
20260510010003 8 0 0.0 0.0 0.00 0.00 0.00 78 1010.3
20260510005503 8 0 0.0 0.0 0.00 0.00 0.00 78 1010.4
20260510005003 8 0 0.0 0.0 0.00 0.00 0.00 78 1010.3
20260510004503 8 0 0.0 0.0 0.00 0.00 0.00 78 1010.3
20260510003503 8 0 0.0 0.0 0.00 0.00 0.00 78 1010.2
20260510003003 8 0 0.0 0.0 0.00 0.00 0.00 78 1010.1
20260510002503 8 0 0.0 0.0 0.00 0.00 0.00 78 1010.0
20260510002003 8 0 0.0 0.0 0.00 0.00 0.00 78 1009.9
20260510001503 8 0 0.0 0.0 0.00 0.00 0.00 78 1009.9
20260510001004 8 0 0.0 0.0 0.00 0.00 0.00 78 1009.9
20260510000503 8 0 0.0 0.0 0.00 0.00 0.00 78 1009.7
20260509235503 8 0 0.0 0.0 0.00 0.00 0.00 78 1009.6
20260509234503 9 0 0.0 0.0 0.00 0.00 0.00 78 1009.6
20260509234003 9 0 0.0 0.0 0.00 0.00 0.00 78 1009.6
20260509233503 9 0 0.0 0.0 0.00 0.00 0.00 78 1009.4
20260509233003 9 0 0.0 0.0 0.00 0.00 0.00 77 1009.4
20260509232504 9 0 0.0 0.0 0.00 0.00 0.00 77 1009.5
20260509232003 9 0 0.0 0.0 0.00 0.00 0.00 77 1009.5
20260509231503 9 0 0.0 0.0 0.00 0.00 0.00 77 1009.5
20260509231003 9 0 0.0 0.0 0.00 0.00 0.00 78 1009.5
20260509230503 9 0 0.0 0.0 0.00 0.00 0.00 78 1009.6
20260509230003 9 0 0.0 0.0 0.00 0.00 0.00 78 1009.6
20260509225503 9 0 0.0 0.0 0.00 0.00 0.00 78 1009.6
20260509225004 9 0 0.0 0.0 0.00 0.00 0.00 77 1009.7
20260509224004 9 0 0.0 0.0 0.00 0.00 0.00 78 1009.6
20260509223503 9 0 0.0 0.0 0.00 0.00 0.00 78 1009.7
20260509222503 9 0 0.0 0.0 0.00 0.00 0.00 78 1009.7
20260509222003 9 0 0.0 0.0 0.00 0.00 0.00 78 1009.7
20260509221503 9 0 0.0 0.0 0.00 0.00 0.00 78 1009.7
20260509221003 9 0 0.0 0.0 0.00 0.00 0.00 78 1009.7
20260509220503 9 0 0.0 0.0 0.00 0.00 0.00 78 1009.8
20260509220003 9 0 0.0 0.0 0.00 0.00 0.00 78 1009.8
20260509215504 9 0 0.0 0.0 0.00 0.00 0.00 79 1009.8
20260509215003 9 0 0.0 0.0 0.00 0.00 0.00 79 1010.0
20260509214504 9 0 0.0 0.0 0.00 0.00 0.00 79 1009.9
20260509213503 9 0 0.0 0.0 0.00 0.00 0.00 79 1010.1
20260509213003 9 0 0.0 0.0 0.00 0.00 0.00 79 1010.1
20260509212503 9 0 0.0 0.0 0.00 0.00 0.00 79 1010.1
20260509212004 9 0 0.0 0.0 0.00 0.00 0.00 79 1010.3
20260509211503 9 0 0.0 0.0 0.00 0.00 0.00 79 1010.2
20260509211004 9 0 0.0 0.0 0.00 0.00 0.00 79 1010.3
20260509210503 9 0 0.0 0.0 0.00 0.00 0.00 79 1010.3
20260509210004 9 0 0.0 0.0 0.00 0.00 0.00 79 1010.3
20260509205003 9 0 0.0 0.0 0.00 0.00 0.00 79 1010.3
20260509204003 9 0 0.0 0.0 0.00 0.00 0.00 79 1010.4
20260509203503 10 0 0.0 0.0 0.00 0.00 0.00 78 1010.3
20260509203003 9 0 0.0 0.0 0.00 0.00 0.00 78 1010.3
20260509202504 9 0 0.0 0.0 0.00 0.00 0.00 78 1010.3
20260509201504 9 0 0.0 0.0 0.00 0.00 0.00 79 1010.3
20260509201003 9 0 0.0 0.0 0.00 0.00 0.00 79 1010.3
20260509200503 9 0 0.0 0.0 0.00 0.00 0.00 79 1010.4
20260509200004 9 0 0.0 0.0 0.00 0.00 0.00 79 1010.3
20260509195503 8 0 0.0 0.0 0.00 0.00 0.00 79 1010.5
20260509194503 8 0 0.0 0.0 0.00 0.00 0.00 79 1010.6
20260509194003 8 0 0.0 0.0 0.00 0.00 0.00 79 1010.6
20260509193003 8 0 0.0 0.0 0.00 0.00 0.00 79 1010.8
20260509192503 8 0 0.0 0.0 0.00 0.00 0.00 80 1010.7
20260509192003 8 0 0.0 0.0 0.00 0.00 0.00 80 1010.8
20260509191504 8 0 0.0 0.0 0.00 0.00 0.00 80 1010.9
20260509191003 8 0 0.0 0.0 0.00 0.00 0.00 80 1010.9
20260509190504 8 0 0.0 0.0 0.00 0.00 0.00 80 1010.9
20260509190003 8 0 0.0 0.0 0.00 0.00 0.00 81 1011.0
20260509185503 8 0 0.0 0.0 0.00 0.00 0.00 80 1011.0
20260509185003 8 0 0.0 0.0 0.00 0.00 0.00 81 1011.1
20260509184503 8 0 0.0 0.0 0.00 0.00 0.00 81 1011.1
20260509184004 8 0 0.0 0.0 0.00 0.00 0.00 81 1011.1
20260509183003 8 0 0.0 0.0 0.00 0.00 0.00 81 1011.2
20260509182503 8 0 0.0 0.0 0.00 0.00 0.00 82 1011.3
20260509182004 8 0 0.0 0.0 0.00 0.00 0.00 82 1011.4
20260509181503 8 0 0.0 0.0 0.00 0.00 0.00 83 1011.4
20260509181004 8 0 0.0 0.0 0.00 0.00 0.00 83 1011.5
20260509180503 8 0 0.0 0.0 0.00 0.00 0.00 83 1011.5
20260509180004 8 0 0.0 0.0 0.00 0.00 0.00 82 1011.5
20260509175503 8 0 0.0 0.0 0.00 0.00 0.00 83 1011.5
20260509175003 8 0 0.0 0.0 0.00 0.00 0.00 83 1011.5
20260509174504 7 0 0.0 0.0 0.00 0.00 0.00 84 1011.6
20260509174003 7 0 0.0 0.0 0.00 0.00 0.00 83 1011.6
20260509173504 8 0 0.0 0.0 0.00 0.00 0.00 83 1011.6
20260509173003 8 0 0.0 0.0 0.00 0.00 0.00 83 1011.8
20260509172503 8 0 0.0 0.0 0.00 0.00 0.00 83 1011.8
20260509172003 8 0 0.0 0.0 0.00 0.00 0.00 83 1011.8